Location: Orangeville
(43.9200°N, 80.0943°W)
Time: 12:55:53
(UTC-05:00)

N. Korean satellite - Visible Passes

Search period start: 07 December 2021 00:00
Search period end: 17 December 2021 00:00
Orbit: 446 x 495 km, 97.3° (Epoch: 06 December)

Date Brightness Start Highest point End Pass type
(mag) Time Alt. Az. Time Alt. Az. Time Alt. Az.
07 Dec 9.5 04:43:16 10° NE 04:45:18 15° E 04:47:20 10° SE visible
07 Dec 7.1 06:15:35 10° N 06:18:35 30° WNW 06:21:34 10° SW visible
08 Dec 6.2 05:46:46 10° N 05:50:08 74° WNW 05:53:30 10° SSW visible
08 Dec 10.0 17:57:26 10° WSW 17:58:39 11° W 17:59:52 10° WNW visible
09 Dec 7.6 05:18:19 10° NNE 05:21:34 42° E 05:24:47 10° S visible
09 Dec 8.3 06:53:04 10° NW 06:54:22 12° WNW 06:55:41 10° W visible
09 Dec 9.1 17:26:59 10° SSW 17:29:54 25° W 17:32:49 10° NW visible
10 Dec 9.2 04:52:07 17° ENE 04:52:53 19° E 04:55:20 10° SE visible
10 Dec 7.4 06:23:15 10° NNW 06:26:15 24° WNW 06:28:51 10° SW visible
11 Dec 6.5 05:58:05 51° WSW 05:58:05 51° WSW 06:00:57 10° SSW visible
12 Dec 7.3 05:29:42 45° SE 05:29:42 45° SE 05:32:23 10° S visible
12 Dec 9.5 17:34:47 10° SW 17:37:24 20° W 17:40:01 10° NW visible
13 Dec 8.9 05:01:15 21° ESE 05:01:15 21° ESE 05:03:08 10° SSE visible
13 Dec 8.4 06:35:20 13° WSW 06:35:20 13° WSW 06:36:01 10° WSW visible
14 Dec 7.9 06:06:47 23° SW 06:06:47 23° SW 06:08:16 10° SSW visible
15 Dec 8.0 05:38:13 26° S 05:38:13 26° S 05:39:52 10° S visible
15 Dec 9.6 17:42:37 10° SW 17:44:51 16° W 17:47:05 10° NW visible
16 Dec 8.9 05:09:34 18° SE 05:09:34 18° SE 05:10:47 10° SSE visible
16 Dec9.006:43:40WSW06:43:40WSW06:35:59Nvisible
16 Dec 8.3 17:12:54 10° SSW 17:16:06 36° W 17:19:16 10° NNW visible
